When you browse on this site, cookies collect data to enhance your experience and personalize the content and advertising you see.
Visit our Privacy Policy to learn more. By continuing to use the site, you agree to this use of cookies and data.
  • In Switzerland
  • List of Countries
  • For 7 days
  • Water Temperature
  • Satellite Maps
  • Weather Map
  • Weather Widgets
  • user-avatar
    Login

    Hourly Weather Rawson

    Today, 21 March, Thursday

    Time Temperature Precipitation Wind Pressure Humidity
    00:00 +17°C° 0 mm 7 mps 762 mmHg 45%
    01:00 +17°C° 0 mm 7 mps 761 mmHg 39%
    02:00 +17°C° 0 mm 8 mps 761 mmHg 33%
    03:00 +16°C° 0 mm 8 mps 761 mmHg 35%
    04:00 +16°C° 0 mm 8 mps 761 mmHg 36%
    05:00 +16°C° 0 mm 8 mps 760 mmHg 38%
    06:00 +16°C° 0 mm 8 mps 760 mmHg 38%
    07:00 +16°C° 0 mm 8 mps 760 mmHg 38%
    08:00 +16°C° 0 mm 9 mps 760 mmHg 38%
    09:00 +18°C° 0 mm 9 mps 760 mmHg 35%
    10:00 +19°C° 0 mm 9 mps 759 mmHg 32%
    11:00 +21°C° 0 mm 10 mps 759 mmHg 29%
    12:00 +22°C° 0 mm 10 mps 759 mmHg 28%
    13:00 +23°C° 0 mm 10 mps 758 mmHg 28%
    14:00 +23°C° 0 mm 10 mps 758 mmHg 27%
    15:00 +23°C° 0 mm 10 mps 758 mmHg 27%
    16:00 +23°C° 0 mm 9 mps 757 mmHg 27%
    17:00 +24°C° 0 mm 9 mps 757 mmHg 27%
    18:00 +22°C° 0 mm 10 mps 757 mmHg 31%
    19:00 +21°C° 0 mm 10 mps 757 mmHg 35%
    20:00 +19°C° 0 mm 10 mps 757 mmHg 39%
    21:00 +19°C° 0 mm 10 mps 757 mmHg 40%
    22:00 +18°C° 0 mm 9 mps 757 mmHg 40%
    23:00 +18°C° 0 mm 8 mps 757 mmHg 41%

    Tomorrow, 22 March, Friday

    Time Temperature Precipitation Wind Pressure Humidity
    00:00 +18°C° 0 mm 7 mps 757 mmHg 42%
    01:00 +19°C° 0 mm 6 mps 757 mmHg 42%
    02:00 +17°C° 0 mm 6 mps 758 mmHg 42%
    03:00 +17°C° 0 mm 5 mps 758 mmHg 44%
    04:00 +17°C° 0 mm 5 mps 757 mmHg 46%
    05:00 +17°C° 0 mm 4 mps 757 mmHg 48%
    06:00 +17°C° 0 mm 5 mps 758 mmHg 50%
    07:00 +17°C° 0 mm 5 mps 758 mmHg 52%
    08:00 +19°C° 0 mm 5 mps 758 mmHg 54%
    09:00 +20°C° 0 mm 6 mps 758 mmHg 48%
    10:00 +22°C° 0 mm 6 mps 758 mmHg 43%
    11:00 +23°C° 0 mm 6 mps 758 mmHg 37%
    12:00 +24°C° 0 mm 6 mps 758 mmHg 36%
    13:00 +26°C° 0 mm 6 mps 757 mmHg 35%
    14:00 +26°C° 0 mm 6 mps 757 mmHg 34%
    15:00 +26°C° 0 mm 6 mps 756 mmHg 33%
    16:00 +26°C° 0 mm 5 mps 756 mmHg 33%
    17:00 +26°C° 0 mm 5 mps 755 mmHg 33%
    18:00 +25°C° 0 mm 5 mps 755 mmHg 36%
    19:00 +25°C° 0 mm 4 mps 755 mmHg 39%
    20:00 +23°C° 0 mm 4 mps 754 mmHg 42%
    21:00 +22°C° 0 mm 4 mps 754 mmHg 44%
    22:00 +21°C° 0 mm 5 mps 754 mmHg 46%
    23:00 +21°C° 0 mm 5 mps 754 mmHg 48%

    Day after tomorrow, 23 March, Saturday

    Time Temperature Precipitation Wind Pressure Humidity
    00:00 +21°C° 0 mm 5 mps 753 mmHg 47%
    01:00 +21°C° 0 mm 5 mps 753 mmHg 46%
    02:00 +21°C° 0 mm 5 mps 753 mmHg 45%
    03:00 +20°C° 0.4 mm 7 mps 752 mmHg 54%
    04:00 +18°C° 0.4 mm 8 mps 752 mmHg 63%
    05:00 +17°C° 0.4 mm 9 mps 752 mmHg 72%
    06:00 +17°C° 1.6 mm 8 mps 753 mmHg 68%
    07:00 +17°C° 1.6 mm 7 mps 753 mmHg 64%
    08:00 +17°C° 1.6 mm 6 mps 753 mmHg 60%
    09:00 +18°C° 0 mm 7 mps 754 mmHg 52%
    10:00 +18°C° 0 mm 8 mps 754 mmHg 44%
    11:00 +19°C° 0 mm 10 mps 754 mmHg 36%
    12:00 +19°C° 0 mm 10 mps 754 mmHg 36%
    13:00 +21°C° 0 mm 9 mps 754 mmHg 37%
    14:00 +21°C° 0 mm 9 mps 754 mmHg 37%
    15:00 +19°C° 0.7 mm 11 mps 754 mmHg 45%
    16:00 +18°C° 0.7 mm 12 mps 754 mmHg 53%
    17:00 +17°C° 0.7 mm 14 mps 755 mmHg 60%
    18:00 +17°C° 0.1 mm 14 mps 756 mmHg 61%
    19:00 +15°C° 0.1 mm 14 mps 757 mmHg 62%
    20:00 +15°C° 0.1 mm 14 mps 758 mmHg 63%
    21:00 +14°C° 0 mm 14 mps 758 mmHg 63%
    22:00 +14°C° 0 mm 14 mps 759 mmHg 64%
    23:00 +13°C° 0 mm 15 mps 759 mmHg 65%

    24 March, Sunday

    Time Temperature Precipitation Wind Pressure Humidity
    00:00 +13°C° 0 mm 14 mps 760 mmHg 66%
    01:00 +13°C° 0 mm 14 mps 760 mmHg 68%
    02:00 +13°C° 0 mm 14 mps 761 mmHg 70%
    03:00 +13°C° 0 mm 14 mps 761 mmHg 69%
    04:00 +13°C° 0 mm 13 mps 762 mmHg 69%
    05:00 +13°C° 0 mm 13 mps 762 mmHg 69%
    06:00 +13°C° 0.1 mm 12 mps 762 mmHg 69%
    07:00 +13°C° 0.1 mm 12 mps 763 mmHg 69%
    08:00 +13°C° 0.1 mm 11 mps 763 mmHg 69%
    09:00 +13°C° 0.1 mm 11 mps 764 mmHg 69%
    10:00 +13°C° 0.1 mm 10 mps 764 mmHg 68%
    11:00 +13°C° 0.1 mm 10 mps 765 mmHg 68%
    12:00 +13°C° 0.1 mm 10 mps 765 mmHg 66%
    13:00 +14°C° 0.1 mm 10 mps 765 mmHg 64%
    14:00 +14°C° 0.1 mm 10 mps 765 mmHg 62%
    15:00 +15°C° 0 mm 9 mps 765 mmHg 64%
    16:00 +13°C° 0 mm 9 mps 765 mmHg 65%
    17:00 +13°C° 0 mm 8 mps 765 mmHg 67%
    18:00 +12°C° 0 mm 7 mps 766 mmHg 69%
    19:00 +11°C° 0 mm 7 mps 766 mmHg 71%
    20:00 +11°C° 0 mm 6 mps 767 mmHg 73%
    21:00 +12°C° 0 mm 5 mps 767 mmHg 72%
    22:00 +12°C° 0 mm 4 mps 767 mmHg 71%
    23:00 +11°C° 0 mm 4 mps 768 mmHg 70%

    25 March, Monday

    Time Temperature Precipitation Wind Pressure Humidity
    00:00 +11°C° 0 mm 3 mps 768 mmHg 70%
    01:00 +11°C° 0 mm 3 mps 768 mmHg 71%
    02:00 +12°C° 0 mm 2 mps 768 mmHg 72%
    03:00 +12°C° 0 mm 2 mps 768 mmHg 72%
    04:00 +10°C° 0 mm 2 mps 768 mmHg 73%
    05:00 +10°C° 0 mm 2 mps 768 mmHg 74%
    06:00 +12°C° 0 mm 2 mps 768 mmHg 71%
    07:00 +12°C° 0 mm 2 mps 769 mmHg 68%
    08:00 +13°C° 0 mm 2 mps 769 mmHg 66%
    09:00 +13°C° 0 mm 2 mps 769 mmHg 62%
    10:00 +13°C° 0 mm 3 mps 770 mmHg 59%
    11:00 +14°C° 0 mm 3 mps 770 mmHg 56%
    12:00 +14°C° 0 mm 3 mps 770 mmHg 54%
    13:00 +16°C° 0 mm 3 mps 770 mmHg 52%
    14:00 +15°C° 0 mm 4 mps 770 mmHg 51%
    15:00 +15°C° 0 mm 4 mps 770 mmHg 52%
    16:00 +14°C° 0 mm 4 mps 770 mmHg 53%
    17:00 +14°C° 0 mm 4 mps 770 mmHg 55%
    18:00 +13°C° 0 mm 4 mps 770 mmHg 57%
    19:00 +13°C° 0 mm 4 mps 771 mmHg 59%
    20:00 +12°C° 0 mm 4 mps 771 mmHg 62%
    21:00 +12°C° 0 mm 4 mps 771 mmHg 62%
    22:00 +12°C° 0 mm 4 mps 772 mmHg 63%
    23:00 +12°C° 0 mm 3 mps 772 mmHg 64%

    26 March, Tuesday

    Time Temperature Precipitation Wind Pressure Humidity
    00:00 +11°C° 0 mm 3 mps 772 mmHg 65%
    01:00 +11°C° 0 mm 3 mps 772 mmHg 66%
    02:00 +11°C° 0 mm 3 mps 772 mmHg 67%
    03:00 +11°C° 0 mm 3 mps 772 mmHg 67%
    04:00 +11°C° 0 mm 3 mps 771 mmHg 68%
    05:00 +11°C° 0 mm 3 mps 771 mmHg 68%
    06:00 +11°C° 0 mm 3 mps 771 mmHg 66%
    07:00 +12°C° 0 mm 3 mps 772 mmHg 64%
    08:00 +12°C° 0 mm 4 mps 772 mmHg 62%
    09:00 +13°C° 0 mm 4 mps 772 mmHg 59%
    10:00 +14°C° 0 mm 5 mps 772 mmHg 55%
    11:00 +15°C° 0 mm 5 mps 772 mmHg 51%
    12:00 +15°C° 0 mm 6 mps 771 mmHg 51%
    13:00 +16°C° 0 mm 6 mps 770 mmHg 50%
    14:00 +16°C° 0 mm 6 mps 770 mmHg 50%
    15:00 +16°C° 0 mm 7 mps 769 mmHg 50%
    16:00 +16°C° 0 mm 7 mps 769 mmHg 49%
    17:00 +16°C° 0 mm 8 mps 769 mmHg 49%
    18:00 +15°C° 0 mm 8 mps 769 mmHg 51%
    19:00 +15°C° 0 mm 8 mps 769 mmHg 54%
    20:00 +13°C° 0 mm 8 mps 769 mmHg 57%
    21:00 +13°C° 0 mm 8 mps 768 mmHg 58%
    22:00 +13°C° 0 mm 8 mps 768 mmHg 59%
    23:00 +13°C° 0 mm 8 mps 768 mmHg 61%
    Show more